Weather observations for the past three days for
Appleton-Outagamie
| Date | Time (cdt) | Wind (mph) | Vis. (mi.) | Weather | Sky Cond. | Temperature (ºF) | Relative Humidity | Wind Chill (°F) | Heat Index (°F) | Pressure | Precipitation (in) | ||||||
|---|---|---|---|---|---|---|---|---|---|---|---|---|---|---|---|---|---|
| Air | Dwpt | 6 hour | altimeter (in) | sea level (mb) | 1 hr | 3 hr | 6 hr | ||||||||||
| Max. | Min. | ||||||||||||||||
| 07 | 11:45 | W 6 G 16 | 10.00 | Mostly Cloudy | BKN065 | 50 | 28.4 | 43% | 48 | 29.89 | 0.0 | ||||||
| 07 | 10:45 | W 13 G 18 | 10.00 | Mostly Cloudy | BKN050 | 50 | 26.6 | 40% | 46 | 29.91 | 0.0 | ||||||
| 07 | 09:45 | SW 6 | 10.00 | Mostly Cloudy | BKN070 | 48.2 | 26.6 | 43% | 46 | 29.92 | 0.0 | ||||||
| 07 | 08:45 | W 9 | 10.00 | Mostly Cloudy | BKN070 | 44.6 | 28.4 | 53% | 40 | 29.94 | 0.0 | ||||||
| 07 | 07:45 | W 7 | 10.00 | Mostly Cloudy | BKN060 | 39.2 | 28.4 | 65% | 35 | 29.94 | 0.0 | ||||||
| 07 | 06:45 | W 6 | 10.00 | Mostly Cloudy | BKN060 | 39.2 | 26.6 | 61% | 36 | 29.94 | 0.0 | ||||||
| 07 | 05:45 | W 7 | 10.00 | Mostly Cloudy | BKN060 | 37.4 | 26.6 | 65% | 33 | 29.92 | 0.0 | ||||||
| 07 | 05:15 | W 5 | 10.00 | Mostly Cloudy | BKN050 | 33.8 | 28.4 | 81% | 30 | 29.92 | 0.0 | ||||||
| 07 | 04:55 | W 7 | 10.00 | Mostly Cloudy | BKN050 | 37.4 | 26.6 | 65% | 33 | 29.92 | 0.0 | ||||||
| 07 | 04:35 | W 7 | 10.00 | Mostly Cloudy | BKN050 | 37.4 | 28.4 | 70% | 33 | 29.92 | 0.0 | ||||||
| 07 | 04:15 | W 6 | 10.00 | Mostly Cloudy | BKN055 | 33.8 | 28.4 | 81% | 29 | 29.92 | 0.0 | ||||||
| 07 | 03:55 | W 6 | 10.00 | Fair | CLR | 37.4 | 28.4 | 70% | 33 | 29.92 | 0.0 | ||||||
| 07 | 03:35 | W 6 | 10.00 | Fair | CLR | 35.6 | 26.6 | 70% | 31 | 29.93 | 0.0 | ||||||
| 07 | 03:15 | W 6 | 10.00 | Fair | CLR | 35.6 | 28.4 | 75% | 31 | 29.92 | 0.0 | ||||||
| 07 | 02:55 | W 5 | 10.00 | Fair | CLR | 37.4 | 26.6 | 65% | 34 | 29.93 | 0.0 | ||||||
| 07 | 02:35 | W 5 | 10.00 | Fair | CLR | 37.4 | 28.4 | 70% | 34 | 29.92 | 0.0 | ||||||
| 07 | 02:15 | NW 5 | 10.00 | Fair | CLR | 37.4 | 28.4 | 70% | 34 | 29.93 | 0.0 | ||||||
| 07 | 01:55 | W 6 | 10.00 | Fair | CLR | 37.4 | 28.4 | 70% | 33 | 29.93 | 0.0 | ||||||
| 07 | 01:35 | W 6 | 10.00 | Fair | CLR | 39.2 | 28.4 | 65% | 36 | 29.94 | 0.0 | ||||||
| 07 | 01:15 | W 3 | 10.00 | Fair | CLR | 39.2 | 28.4 | 65% | 29.95 | 0.0 | |||||||
| 07 | 00:55 | W 6 | 10.00 | Mostly Cloudy | BKN060 | 41 | 28.4 | 61% | 38 | 29.95 | 0.0 | ||||||
| 07 | 00:35 | W 6 | 10.00 | Overcast | OVC060 | 41 | 28.4 | 61% | 38 | 29.95 | 0.0 | ||||||
| 07 | 00:15 | W 7 | 10.00 | Overcast | OVC050 | 42.8 | 28.4 | 57% | 39 | 29.96 | 0.0 | ||||||
| 06 | 23:55 | W 7 | 10.00 | Overcast | OVC050 | 42.8 | 28.4 | 57% | 39 | 29.96 | 0.0 | ||||||
| 06 | 23:35 | W 7 | 10.00 | Overcast | OVC050 | 44.6 | 28.4 | 53% | 41 | 29.96 | 0.0 | ||||||
| 06 | 23:15 | W 8 | 10.00 | Overcast | OVC060 | 44.6 | 28.4 | 53% | 41 | 29.96 | 0.0 | ||||||
| 06 | 22:45 | W 9 | 10.00 | Overcast | OVC060 | 44.6 | 26.6 | 49% | 40 | 29.96 | 0.0 | ||||||
| 06 | 21:45 | W 9 | 10.00 | Overcast | OVC060 | 44.6 | 26.6 | 49% | 40 | 29.96 | 0.0 | ||||||
| 06 | 20:45 | W 12 G 20 | 10.00 | Overcast | OVC060 | 46.4 | 26.6 | 46% | 42 | 29.95 | 0.0 | ||||||
| 06 | 19:45 | W 16 | 10.00 | Mostly Cloudy | BKN060 | 46.4 | 26.6 | 46% | 40 | 29.93 | 0.0 | ||||||
| 06 | 18:45 | W 16 G 23 | 10.00 | Mostly Cloudy | BKN060 | 48.2 | 26.6 | 43% | 43 | 29.92 | 0.0 | ||||||
| 06 | 17:45 | W 16 G 24 | 10.00 | Mostly Cloudy | BKN065 | 51.8 | 26.6 | 38% | 29.91 | 0.0 | |||||||
| 06 | 16:45 | W 16 G 24 | 10.00 | Mostly Cloudy | BKN065 | 51.8 | 24.8 | 35% | 29.9 | 0.0 | |||||||
| 06 | 15:45 | NW 16 G 23 | 10.00 | Mostly Cloudy | BKN065 | 51.8 | 26.6 | 38% | 29.9 | 0.0 | |||||||
| 06 | 14:45 | W 12 G 21 | 10.00 | Mostly Cloudy | BKN065 | 53.6 | 26.6 | 35% | 29.91 | 0.0 | |||||||
| 06 | 13:45 | W 12 G 18 | 10.00 | Mostly Cloudy | BKN060 | 53.6 | 28.4 | 38% | 29.91 | 0.0 | |||||||
| 06 | 12:45 | NW 8 G 16 | 10.00 | Mostly Cloudy | BKN060 | 50 | 26.6 | 40% | 47 | 29.91 | 0.0 | ||||||
| 06 | 11:45 | W 12 | 10.00 | Mostly Cloudy | BKN055 | 48.2 | 28.4 | 46% | 44 | 29.93 | 0.0 | ||||||
| 06 | 10:45 | NW 7 | 10.00 | Mostly Cloudy | SCT030 BKN048 | 48.2 | 30.2 | 50% | 46 | 29.93 | 0.0 | ||||||
| 06 | 09:45 | N 5 | 10.00 | Partly Cloudy | SCT033 | 46.4 | 30.2 | 53% | 45 | 29.92 | 0.0 | ||||||
| 06 | 08:45 | N 5 | 10.00 | Partly Cloudy | SCT060 | 44.6 | 33.8 | 66% | 43 | 29.92 | 0.0 | ||||||
| 06 | 07:45 | N 7 | 10.00 | Partly Cloudy | SCT060 | 39.2 | 33.8 | 81% | 35 | 29.91 | 0.0 | ||||||
| 06 | 06:45 | Vrbl 5 | 10.00 | Mostly Cloudy | BKN060 | 37.4 | 33.8 | 87% | 34 | 29.89 | 0.0 | ||||||
| 06 | 05:45 | Vrbl 6 | 10.00 | Mostly Cloudy | BKN060 | 37.4 | 30.2 | 75% | 33 | 29.87 | 0.0 | ||||||
| 06 | 05:15 | NE 6 | 10.00 | Mostly Cloudy | BKN065 | 35.6 | 30.2 | 81% | 31 | 29.86 | 0.0 | ||||||
| 06 | 04:50 | N 5 | 10.00 | Fair | CLR | 35.6 | 28.4 | 75% | 32 | 29.86 | 0.0 | ||||||
| 06 | 04:35 | NE 3 | 10.00 | Partly Cloudy | SCT060 | 37.4 | 28.4 | 70% | 29.86 | 0.0 | |||||||
| 06 | 04:15 | N 3 | 10.00 | Partly Cloudy | SCT060 | 35.6 | 28.4 | 75% | 29.87 | 0.0 | |||||||
| 06 | 03:50 | N 5 | 10.00 | Partly Cloudy | SCT070 | 37.4 | 28.4 | 70% | 34 | 29.87 | 0.0 | ||||||
| 06 | 03:35 | N 6 | 10.00 | Partly Cloudy | SCT070 | 37.4 | 28.4 | 70% | 33 | 29.86 | 0.0 | ||||||
| 06 | 03:15 | N 7 | 10.00 | Fair | CLR | 37.4 | 28.4 | 70% | 33 | 29.86 | 0.0 | ||||||
| 06 | 02:55 | N 3 | 10.00 | Fair | CLR | 35.6 | 28.4 | 75% | 29.85 | 0.0 | |||||||
| 06 | 02:35 | W 7 | 10.00 | Fair | CLR | 35.6 | 28.4 | 75% | 31 | 29.85 | 0.0 | ||||||
| 06 | 02:15 | W 6 | 10.00 | Fair | CLR | 39.2 | 28.4 | 65% | 36 | 29.85 | 0.0 | ||||||
| 06 | 01:55 | W 5 | 10.00 | Fair | CLR | 37.4 | 28.4 | 70% | 34 | 29.85 | 0.0 | ||||||
| 06 | 01:35 | W 5 | 10.00 | Fair | CLR | 37.4 | 28.4 | 70% | 34 | 29.85 | 0.0 | ||||||
| 06 | 01:15 | W 5 | 10.00 | Fair | CLR | 39.2 | 28.4 | 65% | 36 | 29.85 | 0.0 | ||||||
| 06 | 00:55 | W 5 | 10.00 | Fair | CLR | 39.2 | 28.4 | 65% | 36 | 29.85 | 0.0 | ||||||
| 06 | 00:35 | W 3 | 10.00 | Fair | CLR | 41 | 26.6 | 57% | 29.86 | 0.0 | |||||||
| 06 | 00:15 | W 3 | 10.00 | Fair | CLR | 41 | 26.6 | 57% | 29.86 | 0.0 | |||||||
| 05 | 23:55 | W 3 | 10.00 | Fair | CLR | 42.8 | 26.6 | 53% | 29.86 | 0.0 | |||||||
| 05 | 23:35 | Calm | 10.00 | Fair | CLR | 42.8 | 26.6 | 53% | 29.85 | 0.0 | |||||||
| 05 | 23:15 | Calm | 10.00 | Fair | CLR | 42.8 | 26.6 | 53% | 29.86 | 0.0 | |||||||
| 05 | 22:55 | NW 3 | 10.00 | Fair | CLR | 42.8 | 26.6 | 53% | 29.85 | 0.0 | |||||||
| 05 | 22:45 | W 3 | 10.00 | Fair | CLR | 44.6 | 24.8 | 46% | 29.85 | 0.0 | |||||||
| 05 | 21:45 | NW 3 | 10.00 | Partly Cloudy | SCT120 | 44.6 | 24.8 | 46% | 29.85 | 0.0 | |||||||
| 05 | 20:45 | NW 7 | 10.00 | Partly Cloudy | SCT120 | 44.6 | 24.8 | 46% | 41 | 29.83 | 0.0 | ||||||
| 05 | 19:45 | NW 17 G 23 | 10.00 | Partly Cloudy | SCT060 SCT120 | 48.2 | 23 | 37% | 42 | 29.81 | 0.0 | ||||||
| 05 | 18:45 | NW 17 G 23 | 10.00 | Partly Cloudy | SCT060 | 51.8 | 24.8 | 35% | 29.8 | 0.0 | |||||||
| 05 | 17:45 | NW 20 G 29 | 10.00 | Partly Cloudy | SCT060 | 53.6 | 24.8 | 33% | 29.78 | 0.0 | |||||||
| 05 | 16:45 | NW 14 G 28 | 10.00 | Partly Cloudy | SCT060 | 53.6 | 24.8 | 33% | 29.77 | 0.0 | |||||||
| 05 | 15:45 | NW 17 G 26 | 10.00 | Partly Cloudy | SCT060 | 55.4 | 24.8 | 31% | 29.77 | 0.0 | |||||||
| 05 | 14:45 | NW 24 G 38 | 10.00 | Partly Cloudy and Breezy | SCT060 | 53.6 | 24.8 | 33% | 29.78 | 0.0 | |||||||
| 05 | 13:45 | W 17 G 29 | 10.00 | Partly Cloudy | SCT070 | 53.6 | 24.8 | 33% | 29.76 | 0.0 | |||||||
| 05 | 12:45 | W 17 G 25 | 10.00 | Mostly Cloudy | BKN070 | 53.6 | 23 | 30% | 29.75 | 0.0 | |||||||
| 05 | 11:45 | W 16 G 26 | 10.00 | Partly Cloudy | SCT065 | 51.8 | 23 | 32% | 29.75 | 0.0 | |||||||
| 05 | 10:45 | W 16 G 24 | 10.00 | Mostly Cloudy | BKN055 | 51.8 | 26.6 | 38% | 29.74 | 0.0 | |||||||
| 05 | 08:45 | W 9 | 10.00 | Partly Cloudy | SCT120 | 48.2 | 28.4 | 46% | 45 | 29.75 | 0.0 | ||||||
| 05 | 07:45 | W 9 | 10.00 | Partly Cloudy | SCT120 | 46.4 | 28.4 | 50% | 42 | 29.74 | 0.0 | ||||||
| 05 | 06:45 | W 7 | 10.00 | Fair | CLR | 42.8 | 28.4 | 57% | 39 | 29.71 | 0.0 | ||||||
| 05 | 05:45 | W 8 | 10.00 | Partly Cloudy | SCT120 | 42.8 | 26.6 | 53% | 39 | 29.7 | 0.0 | ||||||
| 05 | 05:15 | W 9 | 10.00 | Fair | CLR | 41 | 26.6 | 57% | 36 | 29.69 | 0.0 | ||||||
| 05 | 04:55 | SW 6 | 10.00 | Fair | CLR | 41 | 26.6 | 57% | 38 | 29.69 | 0.0 | ||||||
| 05 | 04:35 | SW 6 | 10.00 | Fair | CLR | 41 | 26.6 | 57% | 38 | 29.69 | 0.0 | ||||||
| 05 | 04:15 | W 5 | 10.00 | Fair | CLR | 41 | 26.6 | 57% | 38 | 29.67 | 0.0 | ||||||
| 05 | 03:55 | NW 6 | 10.00 | Fair | CLR | 41 | 26.6 | 57% | 38 | 29.67 | 0.0 | ||||||
| 05 | 03:35 | NW 6 | 10.00 | Fair | CLR | 42.8 | 24.8 | 49% | 40 | 29.65 | 0.0 | ||||||
| 05 | 03:15 | NW 8 | 10.00 | Fair | CLR | 42.8 | 24.8 | 49% | 39 | 29.65 | 0.0 | ||||||
| 05 | 02:55 | NW 9 | 10.00 | Fair | CLR | 44.6 | 24.8 | 46% | 40 | 29.65 | 0.0 | ||||||
| 05 | 02:35 | NW 9 | 10.00 | Fair | CLR | 44.6 | 26.6 | 49% | 40 | 29.65 | 0.0 | ||||||
| 05 | 02:15 | NW 8 | 10.00 | Fair | CLR | 46.4 | 26.6 | 46% | 43 | 29.65 | 0.0 | ||||||
| 05 | 01:55 | NW 12 G 18 | 10.00 | Fair | CLR | 46.4 | 24.8 | 43% | 42 | 29.65 | 0.0 | ||||||
| 05 | 01:35 | NW 14 G 25 | 10.00 | Fair | CLR | 48.2 | 26.6 | 43% | 43 | 29.64 | 0.0 | ||||||
| 05 | 01:15 | NW 15 | 10.00 | Fair | CLR | 46.4 | 28.4 | 50% | 41 | 29.63 | 0.0 | ||||||
| 05 | 00:35 | NW 12 G 22 | 10.00 | Fair | CLR | 50 | 30.2 | 47% | 46 | 29.62 | 0.0 | ||||||
| 05 | 00:15 | NW 12 | 10.00 | Fair | CLR | 50 | 30.2 | 47% | 46 | 29.61 | 0.0 | ||||||
| 04 | 23:55 | NW 15 | 10.00 | Fair | CLR | 51.8 | 28.4 | 41% | 29.6 | 0.0 | |||||||
| 04 | 23:35 | NW 14 G 22 | 10.00 | Fair | CLR | 53.6 | 28.4 | 38% | 29.59 | 0.0 | |||||||
| 04 | 23:15 | NW 23 G 29 | 10.00 | Fair and Breezy | CLR | 53.6 | 30.2 | 41% | 29.57 | 0.0 | |||||||
| 04 | 22:55 | NW 14 | 10.00 | Fair | CLR | 55.4 | 32 | 41% | 29.56 | 0.0 | |||||||
| 04 | 22:45 | NW 17 G 28 | 10.00 | Mostly Cloudy | BKN120 | 55.4 | 30.2 | 38% | 29.55 | 0.0 | |||||||
| 04 | 21:45 | NW 16 G 22 | 10.00 | Mostly Cloudy | BKN120 | 57.2 | 30.2 | 36% | 29.5 | 0.0 | |||||||
| 04 | 20:45 | NW 16 G 25 | 10.00 | Mostly Cloudy | BKN120 | 60.8 | 30.2 | 31% | 29.48 | 0.0 | |||||||
| 04 | 19:45 | W 17 G 24 | 10.00 | Mostly Cloudy | BKN120 | 64.4 | 30.2 | 28% | 29.44 | 0.0 | |||||||
| 04 | 18:45 | W 14 G 22 | 10.00 | Mostly Cloudy | BKN120 | 66.2 | 33.8 | 30% | 29.41 | 0.0 | |||||||
| 04 | 17:45 | W 17 G 26 | 10.00 | Mostly Cloudy | BKN120 | 71.6 | 35.6 | 27% | 29.4 | 0.0 | |||||||
| 04 | 16:45 | W 22 G 33 | 10.00 | Mostly Cloudy and Breezy | SCT050 BKN110 | 73.4 | 39.2 | 29% | 29.38 | 0.0 | |||||||
| 04 | 15:45 | W 26 G 37 | 10.00 | Mostly Cloudy and Windy | SCT040 BKN120 | 77 | 41 | 28% | 78 | 29.37 | 0.0 | ||||||
| 04 | 14:45 | W 23 G 29 | 10.00 | Partly Cloudy and Breezy | SCT040 SCT085 | 77 | 42.8 | 30% | 78 | 29.37 | 0.0 | ||||||
| 04 | 13:45 | SW 21 G 29 | 10.00 | Mostly Cloudy and Breezy | SCT040 BKN085 | 77 | 42.8 | 30% | 78 | 29.37 | 0.0 | ||||||
| 04 | 12:45 | W 24 G 36 | 10.00 | Partly Cloudy and Breezy | SCT060 SCT100 | 77 | 42.8 | 30% | 78 | 29.37 | 0.0 | ||||||
| Date | Time (cdt) | Wind (mph) | Vis. (mi.) | Weather | Sky Cond. | Air | Dwpt | Max. | Min. | Relative Humidity | Wind Chill (°F) | Heat Index (°F) | altimeter (in) | sea level (mb) | 1 hr | 3 hr | 6 hr |
| 6 hour | |||||||||||||||||
| Temperature (ºF) | Pressure | Precipitation (in) | |||||||||||||||